Regional Weather Roundup
Issued by NWS

Home | Current Version | Previous Version | Graphics & Text | Print | Product List | Glossary On
Versions: 1 2 3 4 5 6 7 8 9 10 11 12 13 14 15 16 17 18 19 20 21 22 23 24 25 26 27 28 29 30 31 32 33 34 35 36 37 38 39 40 41 42 43 44 45 46 47 48 49 50
000
ASUS43 KOAX 212302
RWRNE

WEATHER ROUNDUP FOR NEBRASKA
NATIONAL WEATHER SERVICE OMAHA NE
600 PM CDT THU SEP 21 2017

NOTES: SATELLITE DATA IS BEING USED TO AUGMENT CLOUD COVER ABOVE
       12000 FEET.
       "FAIR" INDICATES FEW OR NO CLOUDS BELOW 12,000 FEET WITH NO
       SIGNIFICANT WEATHER AND/OR OBSTRUCTIONS TO VISIBILITY.


NEZ001>004-019>022-054>056-220000-
NEBRASKA PANHANDLE

CITY           SKY/WX    TMP DP  RH WIND       PRES   REMARKS
SCOTTSBLUFF    SUNNY     87  37  17 E15       29.64S
ALLIANCE       SUNNY     85  39  19 SE10      29.66F
CHADRON        SUNNY     90  27  10 SE14      29.60S
GORDON         FAIR      87  41  19 SE8       29.66S
KIMBALL        SUNNY     88  31  13 S5G10     29.70S
SIDNEY         SUNNY     89  34  14 E10       29.67F
$$

NEZ057>060-069>072-079>082-220000-
SOUTHWEST NEBRASKA

CITY           SKY/WX    TMP DP  RH WIND       PRES   REMARKS
NORTH PLATTE   SUNNY     95  40  14 S22G28    29.61F HX  91
IMPERIAL       SUNNY     95  23   7 S21G30    29.62R
LEXINGTON      SUNNY     97  39  13 S18       29.63F HX  92
MCCOOK         LGT RAIN  97  38  13 S23G32    29.62S HX  92
OGALLALA       SUNNY     95  34  11 SE12G18   29.60F HX  90
$$

NEZ005>010-023>029-035>040-094-220000-
NORTH CENTRAL NEBRASKA

CITY           SKY/WX    TMP DP  RH WIND       PRES   REMARKS
VALENTINE      SUNNY     91  48  22 S16G23    29.63S
AINSWORTH      SUNNY     87  53  30 S12       29.65R
BROKEN BOW     SUNNY     94  53  25 S21G26    29.64F HX  91
O`NEILL        SUNNY     89  64  44 SE15G23   29.66S HX  90
ORD            SUNNY     91  60  35 S16G23    29.63F HX  90
THEDFORD       SUNNY     91  48  23 S7        29.66F
$$

NEZ041-046>049-061>064-073>077-083>087-220000-
SOUTH CENTRAL NEBRASKA

CITY           SKY/WX    TMP DP  RH WIND       PRES   REMARKS
GRAND ISLAND   SUNNY     91  67  44 SE18G29   29.68S HX  94
AURORA         SUNNY     91  64  41 S20       29.68F HX  92
HASTINGS       MOSUNNY   93  62  35 S18G28    29.68S HX  93
HEBRON         SUNNY     94  66  39 SE21G31   29.70R HX  97
HOLDREGE       SUNNY     94  41  15 S15G26    29.65F HX  90
KEARNEY        SUNNY     95  52  23 S24G31    29.65S HX  92
YORK           SUNNY     91  66  43 S20G30    29.69F HX  94
$$

NEZ011>018-030>034-042>045-220000-
NORTHEAST NEBRASKA

CITY           SKY/WX    TMP DP  RH WIND       PRES   REMARKS
NORFOLK        SUNNY     89  70  53 S18G30    29.67S HX  94
ALBION         SUNNY     90  71  52 SE14G29   29.68S HX  95
BLAIR          SUNNY     90  71  53 S18G29    29.74R HX  96
COLUMBUS       SUNNY     91  69  48 S16G26    29.68F HX  96
FREMONT        SUNNY     90  69  51 SE18G29   29.72S HX  94
TEKAMAH        SUNNY     90  71  53 S14G23    29.71R HX  96
WAYNE          SUNNY     87  72  61 S18G24    29.69S HX  93
$$

NEZ050>053-065>068-078-088>093-220000-
SOUTHEAST NEBRASKA

CITY           SKY/WX    TMP DP  RH WIND       PRES   REMARKS
LINCOLN        SUNNY     92  70  48 S18G30    29.71S HX  97
OMAHA EPPLEY   MOSUNNY   91  71  51 S26G37    29.72S HX  97
BEATRICE       SUNNY     92  72  52 S20G30    29.73S HX  99
FALLS CITY     MOSUNNY   90  73  57 S21G31    29.77F HX  98
NEBRASKA CITY  MOSUNNY   89  74  60 S22G28    29.77R HX  97
PLATTSMOUTH    MOSUNNY   90  73  57 S15G29    29.75S HX  97
$$

NEZ044-045-051>053-067-220000-
OMAHA AREA

CITY           SKY/WX    TMP DP  RH WIND       PRES   REMARKS
OMAHA EPPLEY   MOSUNNY   91  71  51 S26G37    29.72S HX  97
BLAIR          SUNNY     90  71  53 S18G29    29.74R HX  96
FREMONT        SUNNY     90  69  51 SE18G29   29.72S HX  94
MILLARD        SUNNY     92  73  52 S16G26    29.73S HX 101
OFFUTT AFB     SUNNY     90  71  53 SE21G28   29.73R HX  96
PLATTSMOUTH    MOSUNNY   90  73  57 S15G29    29.75S HX  97
WAHOO          FAIR      91  69  48 S18G24    29.71S HX  95
$$




USA.gov is the U.S. government's official web portal to all federal, state and local government web resources and services.